Other Public Products
Issued by NWS Grand Forks, ND

Home | Current Version | Previous Version | Graphics & Text | Print | Product List | Glossary On
Versions: 1 2 3 4 5 6 7 8 9 10 11 12 13 14 15 16 17 18 19 20 21 22 23 24 25 26 27 28 29 30 31 32 33 34 35 36 37 38 39 40 41 42 43 44 45 46 47 48 49 50
000
FPUS83 KFGF 271610
OPUFGF
PRAIRIE TO PINES WEATHER ROUNDUP
NATIONAL WEATHER SERVICE EASTERN NORTH DAKOTA/GRAND FORKS ND
1100 AM CDT MON APR 27 2015

 **SATELLITE DATA USED TO AUGMENT SKY COVER AT AUTOMATED STATIONS**
 *****  WEATHER ACROSS EASTERN NORTH DAKOTA  *****

CITY           SKY/WX    TMP DP  RH WIND       PRES   REMARKS
GRAND FORKS    CLOUDY    62  45  53 VRB6      30.22S
GRAND FORKS AF MOSUNNY   60  45  57 NE3       30.22S
GRAND CITY NWS   N/A     59 N/A N/A N12         N/A
BUXTON         NOT AVBL
DEVILS LAKE    PTSUNNY   52  39  62 N10       30.24S
FARGO          MOSUNNY   62  27  26 SW6       30.24S
WAHPETON ARPT  SUNNY     59  21  23 SW3       30.26S
$$

 *****  WEATHER ACROSS CENTRAL AND WESTERN NORTH DAKOTA  *****

CITY           SKY/WX    TMP DP  RH WIND       PRES   REMARKS
JAMESTOWN      MOSUNNY   61  36  39 W7        30.22S
BISMARCK       CLOUDY    49  43  80 N7        30.28R
MINOT          LGT RAIN  42  39  89 NW9       30.30R FOG
MINOT AFB      LGT RAIN  42  42 100 NW9       30.29R
GARRISON         N/A     42  39  89 NW13      30.30R
WILLISTON      LGT RAIN  45  38  76 NW7       30.33R
DICKINSON      CLOUDY    41  38  89 NW10      30.31R
HETTINGER      CLOUDY    42  39  89 N15       30.31R FOG
$$

 *****  OTHER OBSERVATIONS NORTHEAST NORTH DAKOTA  *****

CITY           SKY/WX    TMP DP  RH WIND       PRES   REMARKS
WALHALLA       FAIR      54  45  71 N7        30.25R
LANGDON        CLOUDY    50  41  71 NW14      30.24R
CAVALIER       FAIR      54  41  62 N13G18    30.24R
GRAFTON        FAIR      55  46  71 N12       30.24R
CANDO          CLOUDY    46  39  76 N13       30.27R
FORT TOTTEN      N/A     49  40  70 N7        29.95
ROLLA          PTSUNNY   41  41 100 NW14      30.27R
RUGBY          NOT AVBL
 ***** THE ABOVE OBSERVATIONS ARE NON NWS ARE NOT QUALITY
        CONTROLLED AND MAY MIS-REPORT RAIN FOR SNOW...
$$

 *****  OTHER OBSERVATIONS SOUTHEAST NORTH DAKOTA *****

CITY           SKY/WX    TMP DP  RH WIND       PRES   REMARKS
COOPERSTOWN    NOT AVBL
VALLEY CITY    FAIR      61  32  33 SW5       30.24S
OAKES            N/A     63  27  25 SW6       30.24F
GWINNER        SUNNY     64  28  25 SW8       30.25S
BUFFALO        NOT AVBL
WYNDMERE       NOT AVBL
 ***** THE ABOVE OBSERVATIONS ARE NON NWS ARE NOT QUALITY
       CONTROLLED AND MAY MIS-REPORT RAIN FOR SNOW...
$$

  *****  WEATHER ACROSS NORTHERN MINNESOTA  *****

CITY           SKY/WX    TMP DP  RH WIND       PRES   REMARKS
FLAG ISLAND    MOSUNNY   46  27  46 SE6       30.20S
WARROAD        MOSUNNY   64  32  29 W9        30.21S
ROSEAU         PTSUNNY   64  28  25 W9        30.21S
HALLOCK        PTSUNNY   55  45  67 N12       30.22S
THF RVR FALLS  MOSUNNY   64  28  25 W10       30.22S
HALSTAD        NOT AVBL
FOSSTON        SUNNY     64  21  19 W5        30.23S
BAUDETTE       MOSUNNY   63  23  21 N5        30.21S
WASKISH        SUNNY     59  27  29 CALM      30.23S
CROOKSTON      MOSUNNY   63  32  31 NW7       30.23S
$$
  *****  WEATHER ACROSS CENTRAL AND WEST MINNESOTA  *****

CITY           SKY/WX    TMP DP  RH WIND       PRES   REMARKS
BEMIDJI        SUNNY     63  24  22 W8        30.23R
PARK RAPIDS    SUNNY     65  21  18 W13G21    30.23S
WADENA         SUNNY     61  27  27 MISG      30.25R
DETROIT LAKES  SUNNY     63  23  22 W9        30.26R
MOORHEAD       MOSUNNY   61  25  25 SW5       30.25S
FERGUS FALLS   SUNNY     61  16  17 W7        30.27S
ELBOW LAKE     FAIR      60  27  28 W6        30.26S
MORRIS MN      SUNNY     63  25  23 W6        30.25S
STAPLES        SUNNY     61  19  20 W8        30.24S
WHEATON        SUNNY     61  27  27 W8        30.27S
$$
  *****  WEATHER ELSEWHERE ACROSS MINNESOTA  *****

CITY           SKY/WX    TMP DP  RH WIND       PRES   REMARKS
DULUTH         SUNNY     59  27  29 N8        30.22S
INTRNTL FALLS  SUNNY     60  23  24 VRB3      30.22S
ELY            SUNNY     54  27  35 N3        30.23S
CLOQUET        SUNNY     59  21  23 N5        30.22S
BRAINERD       SUNNY     60  21  22 VRB7      30.24S
HIBBING        SUNNY     60  23  24 NE9       30.22S
ALEXANDRIA     SUNNY     59  26  28 NW8       30.27S
SAINT CLOUD    SUNNY     57  28  33 SW5       30.25S
MINNEAPOLIS    SUNNY     59  29  31 NW7       30.25S
$$

  *****  WEATHER ACROSS SOUTH DAKOTA  *****

CITY           SKY/WX    TMP DP  RH WIND       PRES   REMARKS
SIOUX FALLS    MOSUNNY   60  28  29 CALM      30.23F
BROOKINGS      NOT AVBL
WATERTOWN      NOT AVBL
HURON          SUNNY     60  31  33 CALM      30.24S
SISSETON         N/A     64  21  19 NW6       30.24S
ABERDEEN       SUNNY     63  22  20 SE5       30.24F
MITCHELL       SUNNY     59  38  45 VRB3      30.24S
PIERRE         SUNNY     61  34  36 W6        30.23R
MOBRIDGE       MOSUNNY   56  43  61 NW7       30.23R
RAPID CITY     CLOUDY    43  39  86 N26       30.29R
$$

  *****  SOME WEATHER IN NEARBY STATES *****

CITY           SKY/WX    TMP DP  RH WIND       PRES   REMARKS
GLASGOW MT     MOSUNNY   45  37  73 W5        30.34R
GREAT FALLS MT SUNNY     49  33  54 S13       30.29R
CHEYENNE WY    CLOUDY    37  35  92 N3        30.27R FOG
SCOTTSBLUFF NE CLOUDY    48  42  80 W5        30.28R
OMAHA NE       MOSUNNY   59  38  45 N7        30.21F
DES MOINES IA  MOSUNNY   62  28  27 N8        30.20R
DAVENPORT IA   SUNNY     55  35  47 NE9       30.18S
CHICAGO IL     PTSUNNY   51  32  48 N14       30.12F
EAU CLAIRE WI  SUNNY     58  30  34 VRB7      30.21F
LA CROSSE WI   SUNNY     56  31  38 NW6       30.21F
$$

  *****  SOME NATIONAL WEATHER *****

CITY           SKY/WX    TMP DP  RH WIND       PRES   REMARKS
LA GUARDIA NY  PTSUNNY   57  32  38 NW8       29.67S
RALEIGH NC     MOSUNNY   63  40  42 VRB7      29.85S
ATLANTA GA     MOSUNNY   65  49  56 N10       29.90F
NEW ORLEANS LA TSTM      65  63  93 NE23G33   29.79R FOG
OKLAHOMA CITY  TSTM      54  48  80 E22G31    29.85R
ALBUQUERQUE NM PTSUNNY   51  39  63 CALM      30.05R
SALT LAKE CITY MOSUNNY   49  38  65 NW7       30.25R
LOS ANGELES CA MOSUNNY   68  51  54 CALM      29.96R
BOISE ID       SUNNY     48  27  44 CALM      30.33R
SEATTLE WA     PTSUNNY   57  51  80 SE7       30.27S
$$

*** WEATHER ACROSS MANITOBA...SASKATCHEWAN AND ONTARIO ***
                ***ONTARIO***

CITY           SKY/WX    TMP DP  RH WIND       PRES   REMARKS
GERALDTON      SUNNY     41  30  65 CALM      30.22F
THUNDER BAY    SUNNY     55  27  33 N6        30.21S
SIOUX LOOKOUT  MOSUNNY   55  30  38 VRB2      30.24S
TORONTO        PTSUNNY   48  37  66 N17       29.89R
BIG TROUT LK   SUNNY     41  30  65 SE5       30.25F
PICKLE LAKE    PTSUNNY   48  27  43 VRB3      30.24F
DRYDEN         SUNNY     57  27  30 W6        30.22F
KENORA         PTSUNNY   59  23  25 SW6       30.21S
$$
                *** MANITOBA***

CITY           SKY/WX    TMP DP  RH WIND       PRES   REMARKS
BRANDON        LGT RAIN  43  39  87 NW14      30.28R
DAUPHIN        SUNNY     45  34  65 W16       30.26S
ISLAND LAKE    CLOUDY    48  32  53 W9        30.13S
PILOT MOUND      N/A     41  39  93 NW12        N/A
THE PAS        CLOUDY    37  36  93 NW14      30.22S
THOMPSON       DRIZZLE   39  36  87 W6        30.08R
WINNIPEG       LGT RAIN  50  41  71 NW13      30.25R
LYNN LAKE      CLOUDY    34  32  93 NW8       30.18R
CHURCHILL      LGT SNOW  27  25  93 E15       30.28F WCI  15
GILLAM         CLOUDY    45  32  61 CALM      30.10F
$$
                ***SASKATCHEWAN***

CITY           SKY/WX    TMP DP  RH WIND       PRES   REMARKS
ESTEVAN        LGT RAIN  43  39  87 W8G21     30.31R
KINDERSLEY     MOSUNNY   52  32  46 S17       30.20F
LLOYDMINSTER   PTSUNNY   50  30  46 S15       30.15F
PRINCE ALBERT  SUNNY     39  34  81 VRB2      30.27S
REGINA         SUNNY     46  34  61 NW5       30.31S
YORKTON        CLOUDY    43  32  65 NW9       30.29S


USA.gov is the U.S. government's official web portal to all federal, state and local government web resources and services.